FLOCK 3K-7 (43902 NORAD) Tracking and Keplerian Element Data

This shows tracking and keplerian element data for the satellite.

Feedback or suggestion? Click here.




ElementValue
Catalog43902
NameFLOCK 3K-7
Epoch Orbit331
Epoch Day17.82024143
Epoch Year2019
RAAN287.1327
Inclination97.2995
Eccentricity0.0023157
Argument of Perigee163.7254
Mean Anonmoly196.4732
Mean Motion15.23685064
Decay Rate2.611E-05
L11 43902U 18111AC 19017.82024143 .00002611 00000-0 11098-3 0 9994
L22 43902 97.2995 287.1327 0023157 163.7254 196.4732 15.23685064 3316

Live tracking and technical data element details for FLOCK 3K-7 (NORAD 43902). FLOCK 3K-7 can be tracked NOW for your location showing map with azimuth and elevation plus other details from your city location.

Track the satellite on the map from your city or location and see movement details for azimuth, elevation, latitude, longitude, range, height, and movement on the map or in text.







IsCatalogInMostPopularTable: catalog: 43902, numindb: 18
Update: records affected: 1



GetName: 43902 FLOCK 3K-7

Hit Count: updated at: Fri, 18 Jan 2019 21:36:56 GMT